This is the latest recevied weather packets stored in our database for station/object KL4TQ. If no packets are shown the sender has not sent any weather packets the latest 10 day(s).
| Time | Temp. | Humidity | Pressure | Rain* | Wind** | Luminosity | Snow |
|---|---|---|---|---|---|---|---|
| 1777930870 | 8.89° C | 60% | 858 hPa | 0 mm | - | 441 W/m² | - |
| 1777930569 | 9.44° C | 59% | 858 hPa | 0 mm | - | 497 W/m² | - |
| 1777930269 | 9.44° C | 59% | 858 hPa | 0 mm | - | 636 W/m² | - |
| 1777929968 | 8.89° C | 61% | 858 hPa | 0 mm | - | 527 W/m² | - |
| 1777929668 | 8.89° C | 61% | 858 hPa | 0 mm | - | 471 W/m² | - |
| 1777929368 | 8.89° C | 61% | 858 hPa | 0 mm | - | 727 W/m² | - |
| 1777929072 | 8.89° C | 60% | 858 hPa | 0 mm | - | 433 W/m² | - |
| 1777928768 | 9.44° C | 60% | 858 hPa | 0 mm | - | 493 W/m² | - |
| 1777928470 | 8.89° C | 60% | 858 hPa | 0 mm | - | 544 W/m² | - |
| 1777928168 | 8.89° C | 60% | 858 hPa | 0 mm | - | 688 W/m² | - |
| 1777927871 | 8.89° C | 61% | 858 hPa | 0 mm | - | 630 W/m² | - |
| 1777927569 | 8.89° C | 62% | 858 hPa | 0 mm | - | 567 W/m² | - |
| 1777927268 | 9.44° C | 59% | 858 hPa | 0 mm | - | 670 W/m² | - |
| 1777926969 | 8.89° C | 61% | 858 hPa | 0 mm | - | 674 W/m² | - |
| 1777926669 | 8.89° C | 62% | 858 hPa | 0 mm | - | 615 W/m² | - |
| 1777926368 | 8.89° C | 60% | 858 hPa | 0 mm | - | 695 W/m² | - |
| 1777926068 | 8.33° C | 62% | 858 hPa | 0 mm | - | 708 W/m² | - |
| 1777925769 | 8.33° C | 63% | 858 hPa | 0 mm | - | 701 W/m² | - |
| 1777925469 | 8.33° C | 62% | 858 hPa | 0 mm | - | 720 W/m² | - |
| 1777925169 | 8.33° C | 62% | 858 hPa | 0 mm | - | 705 W/m² | - |
| 1777924870 | 8.33° C | 62% | 858 hPa | 0 mm | - | 695 W/m² | - |
| 1777924569 | 8.33° C | 62% | 858 hPa | 0 mm | - | 686 W/m² | - |
| 1777924269 | 8.33° C | 61% | 858 hPa | 0 mm | - | 672 W/m² | - |
| 1777923969 | 8.33° C | 61% | 858 hPa | 0 mm | - | 666 W/m² | - |
| 1777923669 | 8.33° C | 62% | 858 hPa | 0 mm | - | 678 W/m² | - |
* Rain latest hour (hover to see other rain measurements)
** Current wind speed in m/s (hover to see current wind gust speed)